User: anonymous   Login
Location: Pic du Midi - T1M
(42.9366°N, 0.1426°E)
Time: 20:09:01
(UTC+01:00)
Language:

MOZHAYETS 4 - Orbit

View from above orbital plane
View from above orbital plane
View from above satellite
View from above satellite

Ground track
Ground track

The orbit data is extracted from the following two-line orbital elements,

1 27939U 03042A   21262.43911523  .00000103  00000-0  27109-4 0  9997
2 27939  98.1531  38.9465 0012535 349.3041  10.7897 14.67022184961300
Epoch (UTC): 19 September 2021 10:32:19
Eccentricity: 0.0012535
inclination: 98.1531°
perigee height: 662 km
apogee height: 679 km
right ascension of ascending node: 38.9465°
argument of perigee: 349.3041°
revolutions per day: 14.67022184
mean anomaly at epoch: 10.7897°
orbit number at epoch: 96130

The dashed part of the orbit path shows where the satellite is in the earth's shadow,  

DLR